Overview Statistics Trail Chart Weather Telemetry Raw packets
 

This is the latest recevied weather packets stored in our database for station/object KE5OYL. If no packets are shown the sender has not sent any weather packets the latest 10 day(s).

<< 99 100 101 102 103 104 105 >>
Time Temp. Humidity Pressure Rain* Wind** Luminosity Snow
1787876416 35.56° C 37% 1013.4 hPa 0 mm - 24 W/m² -
1787876115 36.11° C 37% 1013.3 hPa 0 mm - 25 W/m² -
1787875810 36.11° C 37% 1013.4 hPa 0 mm - 37 W/m² -
1787875509 36.11° C 37% 1013.3 hPa 0 mm - 26 W/m² -
1787875212 36.11° C 37% 1013.3 hPa 0 mm - 27 W/m² -
1787874908 36.11° C 37% 1013.3 hPa 0 mm - 33 W/m² -
1787874603 36.67° C 37% 1013.4 hPa 0 mm - 40 W/m² -
1787874297 36.67° C 37% 1013.3 hPa 0 mm - 91 W/m² -
1787873997 36.67° C 36% 1013.4 hPa 0 mm - 104 W/m² -
1787873696 36.67° C 36% 1013.2 hPa 0 mm - 118 W/m² -
1787873391 36.67° C 37% 1013 hPa 0 mm - 131 W/m² -
1787873085 36.67° C 36% 1013.1 hPa 0 mm - 147 W/m² -
1787872779 37.22° C 36% 1013.1 hPa 0 mm - 162 W/m² -
1787872476 36.67° C 37% 1013.3 hPa 0 mm - 175 W/m² -
1787872170 36.67° C 37% 1013.4 hPa 0 mm - 189 W/m² -
1787871869 36.67° C 38% 1012.9 hPa 0 mm - 200 W/m² -
1787871564 36.67° C 37% 1013.3 hPa 0 mm - 207 W/m² -
1787871260 36.67° C 38% 1013.2 hPa 0 mm - 243 W/m² -
1787870955 37.22° C 36% 1013.3 hPa 0 mm - 259 W/m² -
1787870655 37.22° C 36% 1013.3 hPa 0 mm - 270 W/m² -
1787870350 36.67° C 38% 1013.5 hPa 0 mm - 293 W/m² -
1787870046 36.67° C 38% 1013.4 hPa 0 mm - 308 W/m² -
1787869744 37.22° C 38% 1013.4 hPa 0 mm - 325 W/m² -
1787869443 37.22° C 37% 1013.2 hPa 0 mm - 345 W/m² -
1787869138 36.67° C 37% 1013.6 hPa 0 mm - 351 W/m² -

* Rain latest hour (hover to see other rain measurements)
** Current wind speed in m/s (hover to see current wind gust speed)